Index of /20260430/WXO-DD/model_rdps/10km/12/062
Name Last modified Size Description
Parent Directory -
20260430T12Z_MSC_RDPS_AbsoluteVorticity_IsbL-0250_RLatLon0.09_PT062H.grib2 2026-04-30 14:59 611K
20260430T12Z_MSC_RDPS_AbsoluteVorticity_IsbL-0500_RLatLon0.09_PT062H.grib2 2026-04-30 14:59 570K
20260430T12Z_MSC_RDPS_AbsoluteVorticity_IsbL-0700_RLatLon0.09_PT062H.grib2 2026-04-30 14:59 621K
20260430T12Z_MSC_RDPS_AbsoluteVorticity_IsbL-0850_RLatLon0.09_PT062H.grib2 2026-04-30 14:59 772K
20260430T12Z_MSC_RDPS_AirTemp_AGL-120m_RLatLon0.09_PT062H.grib2 2026-04-30 14:59 383K
20260430T12Z_MSC_RDPS_AirTemp_AGL-2m_RLatLon0.09_PT062H.grib2 2026-04-30 14:59 622K
20260430T12Z_MSC_RDPS_AirTemp_AGL-40m_RLatLon0.09_PT062H.grib2 2026-04-30 14:59 395K
20260430T12Z_MSC_RDPS_AirTemp_AGL-80m_RLatLon0.09_PT062H.grib2 2026-04-30 14:59 386K
20260430T12Z_MSC_RDPS_AirTemp_IsbL-0001_RLatLon0.09_PT062H.grib2 2026-04-30 14:59 298K
20260430T12Z_MSC_RDPS_AirTemp_IsbL-0005_RLatLon0.09_PT062H.grib2 2026-04-30 14:59 288K
20260430T12Z_MSC_RDPS_AirTemp_IsbL-0010_RLatLon0.09_PT062H.grib2 2026-04-30 14:59 297K
20260430T12Z_MSC_RDPS_AirTemp_IsbL-0020_RLatLon0.09_PT062H.grib2 2026-04-30 14:59 409K
20260430T12Z_MSC_RDPS_AirTemp_IsbL-0030_RLatLon0.09_PT062H.grib2 2026-04-30 14:59 338K
20260430T12Z_MSC_RDPS_AirTemp_IsbL-0050_RLatLon0.09_PT062H.grib2 2026-04-30 14:59 315K
20260430T12Z_MSC_RDPS_AirTemp_IsbL-0100_RLatLon0.09_PT062H.grib2 2026-04-30 14:59 390K
20260430T12Z_MSC_RDPS_AirTemp_IsbL-0150_RLatLon0.09_PT062H.grib2 2026-04-30 14:59 419K
20260430T12Z_MSC_RDPS_AirTemp_IsbL-0175_RLatLon0.09_PT062H.grib2 2026-04-30 14:59 411K
20260430T12Z_MSC_RDPS_AirTemp_IsbL-0200_RLatLon0.09_PT062H.grib2 2026-04-30 14:59 414K
20260430T12Z_MSC_RDPS_AirTemp_IsbL-0225_RLatLon0.09_PT062H.grib2 2026-04-30 14:59 416K
20260430T12Z_MSC_RDPS_AirTemp_IsbL-0250_RLatLon0.09_PT062H.grib2 2026-04-30 14:59 420K
20260430T12Z_MSC_RDPS_AirTemp_IsbL-0275_RLatLon0.09_PT062H.grib2 2026-04-30 14:59 401K
20260430T12Z_MSC_RDPS_AirTemp_IsbL-0300_RLatLon0.09_PT062H.grib2 2026-04-30 14:59 408K
20260430T12Z_MSC_RDPS_AirTemp_IsbL-0350_RLatLon0.09_PT062H.grib2 2026-04-30 14:59 423K
20260430T12Z_MSC_RDPS_AirTemp_IsbL-0400_RLatLon0.09_PT062H.grib2 2026-04-30 14:59 425K
20260430T12Z_MSC_RDPS_AirTemp_IsbL-0450_RLatLon0.09_PT062H.grib2 2026-04-30 14:59 399K
20260430T12Z_MSC_RDPS_AirTemp_IsbL-0500_RLatLon0.09_PT062H.grib2 2026-04-30 14:59 410K
20260430T12Z_MSC_RDPS_AirTemp_IsbL-0550_RLatLon0.09_PT062H.grib2 2026-04-30 14:59 427K
20260430T12Z_MSC_RDPS_AirTemp_IsbL-0600_RLatLon0.09_PT062H.grib2 2026-04-30 14:59 443K
20260430T12Z_MSC_RDPS_AirTemp_IsbL-0650_RLatLon0.09_PT062H.grib2 2026-04-30 14:59 459K
20260430T12Z_MSC_RDPS_AirTemp_IsbL-0700_RLatLon0.09_PT062H.grib2 2026-04-30 14:59 483K
20260430T12Z_MSC_RDPS_AirTemp_IsbL-0750_RLatLon0.09_PT062H.grib2 2026-04-30 14:59 404K
20260430T12Z_MSC_RDPS_AirTemp_IsbL-0800_RLatLon0.09_PT062H.grib2 2026-04-30 14:59 441K
20260430T12Z_MSC_RDPS_AirTemp_IsbL-0850_RLatLon0.09_PT062H.grib2 2026-04-30 14:59 491K
20260430T12Z_MSC_RDPS_AirTemp_IsbL-0875_RLatLon0.09_PT062H.grib2 2026-04-30 14:59 512K
20260430T12Z_MSC_RDPS_AirTemp_IsbL-0900_RLatLon0.09_PT062H.grib2 2026-04-30 14:59 521K
20260430T12Z_MSC_RDPS_AirTemp_IsbL-0925_RLatLon0.09_PT062H.grib2 2026-04-30 14:59 516K
20260430T12Z_MSC_RDPS_AirTemp_IsbL-0950_RLatLon0.09_PT062H.grib2 2026-04-30 14:59 517K
20260430T12Z_MSC_RDPS_AirTemp_IsbL-0970_RLatLon0.09_PT062H.grib2 2026-04-30 14:59 513K
20260430T12Z_MSC_RDPS_AirTemp_IsbL-0985_RLatLon0.09_PT062H.grib2 2026-04-30 14:59 506K
20260430T12Z_MSC_RDPS_AirTemp_IsbL-1000_RLatLon0.09_PT062H.grib2 2026-04-30 14:59 487K
20260430T12Z_MSC_RDPS_AirTemp_IsbL-1015_RLatLon0.09_PT062H.grib2 2026-04-30 14:59 482K
20260430T12Z_MSC_RDPS_Albedo_Sfc_RLatLon0.09_PT062H.grib2 2026-04-30 14:59 161K
20260430T12Z_MSC_RDPS_CAPE_Sfc_RLatLon0.09_PT062H.grib2 2026-04-30 14:59 1.6M
20260430T12Z_MSC_RDPS_CIN_Sfc_RLatLon0.09_PT062H.grib2 2026-04-30 14:59 1.2M
20260430T12Z_MSC_RDPS_CloudWater_EAtm_RLatLon0.09_PT062H.grib2 2026-04-30 14:59 222K
20260430T12Z_MSC_RDPS_ConvectivePrecip-Accum_Sfc_RLatLon0.09_PT062H.grib2 2026-04-30 14:59 1.1M
20260430T12Z_MSC_RDPS_DewPointDepression_AGL-2m_RLatLon0.09_PT062H.grib2 2026-04-30 14:59 405K
20260430T12Z_MSC_RDPS_DewPointDepression_IsbL-0001_RLatLon0.09_PT062H.grib2 2026-04-30 14:59 193
20260430T12Z_MSC_RDPS_DewPointDepression_IsbL-0005_RLatLon0.09_PT062H.grib2 2026-04-30 14:59 193
20260430T12Z_MSC_RDPS_DewPointDepression_IsbL-0010_RLatLon0.09_PT062H.grib2 2026-04-30 14:59 193
20260430T12Z_MSC_RDPS_DewPointDepression_IsbL-0020_RLatLon0.09_PT062H.grib2 2026-04-30 14:59 193
20260430T12Z_MSC_RDPS_DewPointDepression_IsbL-0030_RLatLon0.09_PT062H.grib2 2026-04-30 14:59 193
20260430T12Z_MSC_RDPS_DewPointDepression_IsbL-0050_RLatLon0.09_PT062H.grib2 2026-04-30 14:59 77K
20260430T12Z_MSC_RDPS_DewPointDepression_IsbL-0100_RLatLon0.09_PT062H.grib2 2026-04-30 14:59 123K
20260430T12Z_MSC_RDPS_DewPointDepression_IsbL-0150_RLatLon0.09_PT062H.grib2 2026-04-30 14:59 152K
20260430T12Z_MSC_RDPS_DewPointDepression_IsbL-0175_RLatLon0.09_PT062H.grib2 2026-04-30 14:59 186K
20260430T12Z_MSC_RDPS_DewPointDepression_IsbL-0200_RLatLon0.09_PT062H.grib2 2026-04-30 14:59 220K
20260430T12Z_MSC_RDPS_DewPointDepression_IsbL-0225_RLatLon0.09_PT062H.grib2 2026-04-30 14:59 256K
20260430T12Z_MSC_RDPS_DewPointDepression_IsbL-0250_RLatLon0.09_PT062H.grib2 2026-04-30 14:59 295K
20260430T12Z_MSC_RDPS_DewPointDepression_IsbL-0275_RLatLon0.09_PT062H.grib2 2026-04-30 14:59 307K
20260430T12Z_MSC_RDPS_DewPointDepression_IsbL-0300_RLatLon0.09_PT062H.grib2 2026-04-30 14:59 325K
20260430T12Z_MSC_RDPS_DewPointDepression_IsbL-0350_RLatLon0.09_PT062H.grib2 2026-04-30 14:59 332K
20260430T12Z_MSC_RDPS_DewPointDepression_IsbL-0400_RLatLon0.09_PT062H.grib2 2026-04-30 14:59 343K
20260430T12Z_MSC_RDPS_DewPointDepression_IsbL-0450_RLatLon0.09_PT062H.grib2 2026-04-30 14:59 350K
20260430T12Z_MSC_RDPS_DewPointDepression_IsbL-0500_RLatLon0.09_PT062H.grib2 2026-04-30 14:59 354K
20260430T12Z_MSC_RDPS_DewPointDepression_IsbL-0550_RLatLon0.09_PT062H.grib2 2026-04-30 14:59 368K
20260430T12Z_MSC_RDPS_DewPointDepression_IsbL-0600_RLatLon0.09_PT062H.grib2 2026-04-30 14:59 379K
20260430T12Z_MSC_RDPS_DewPointDepression_IsbL-0650_RLatLon0.09_PT062H.grib2 2026-04-30 14:59 387K
20260430T12Z_MSC_RDPS_DewPointDepression_IsbL-0700_RLatLon0.09_PT062H.grib2 2026-04-30 14:59 396K
20260430T12Z_MSC_RDPS_DewPointDepression_IsbL-0750_RLatLon0.09_PT062H.grib2 2026-04-30 14:59 413K
20260430T12Z_MSC_RDPS_DewPointDepression_IsbL-0800_RLatLon0.09_PT062H.grib2 2026-04-30 14:59 439K
20260430T12Z_MSC_RDPS_DewPointDepression_IsbL-0850_RLatLon0.09_PT062H.grib2 2026-04-30 14:59 471K
20260430T12Z_MSC_RDPS_DewPointDepression_IsbL-0875_RLatLon0.09_PT062H.grib2 2026-04-30 14:59 474K
20260430T12Z_MSC_RDPS_DewPointDepression_IsbL-0900_RLatLon0.09_PT062H.grib2 2026-04-30 14:59 464K
20260430T12Z_MSC_RDPS_DewPointDepression_IsbL-0925_RLatLon0.09_PT062H.grib2 2026-04-30 14:59 449K
20260430T12Z_MSC_RDPS_DewPointDepression_IsbL-0950_RLatLon0.09_PT062H.grib2 2026-04-30 14:59 440K
20260430T12Z_MSC_RDPS_DewPointDepression_IsbL-0970_RLatLon0.09_PT062H.grib2 2026-04-30 14:59 433K
20260430T12Z_MSC_RDPS_DewPointDepression_IsbL-0985_RLatLon0.09_PT062H.grib2 2026-04-30 14:59 428K
20260430T12Z_MSC_RDPS_DewPointDepression_IsbL-1000_RLatLon0.09_PT062H.grib2 2026-04-30 14:59 421K
20260430T12Z_MSC_RDPS_DewPointDepression_IsbL-1015_RLatLon0.09_PT062H.grib2 2026-04-30 14:59 412K
20260430T12Z_MSC_RDPS_DewPoint_AGL-2m_RLatLon0.09_PT062H.grib2 2026-04-30 14:59 389K
20260430T12Z_MSC_RDPS_DownwardLongwaveRadiationFlux-Accum_Sfc_RLatLon0.09_PT062H.grib2 2026-04-30 14:59 409K
20260430T12Z_MSC_RDPS_DownwardShortwaveRadiationFlux-Accum_NTAtm_RLatLon0.09_PT062H.grib2 2026-04-30 14:59 115K
20260430T12Z_MSC_RDPS_DownwardShortwaveRadiationFlux-Accum_Sfc_RLatLon0.09_PT062H.grib2 2026-04-30 14:59 611K
20260430T12Z_MSC_RDPS_FreezingRain-Accum1h_Sfc_RLatLon0.09_PT062H.grib2 2026-04-30 14:59 23K
20260430T12Z_MSC_RDPS_FreezingRain-Accum_Sfc_RLatLon0.09_PT062H.grib2 2026-04-30 14:59 195K
20260430T12Z_MSC_RDPS_GeopotentialHeight_IsbL-0001_RLatLon0.09_PT062H.grib2 2026-04-30 14:59 307K
20260430T12Z_MSC_RDPS_GeopotentialHeight_IsbL-0005_RLatLon0.09_PT062H.grib2 2026-04-30 14:59 332K
20260430T12Z_MSC_RDPS_GeopotentialHeight_IsbL-0010_RLatLon0.09_PT062H.grib2 2026-04-30 14:59 300K
20260430T12Z_MSC_RDPS_GeopotentialHeight_IsbL-0020_RLatLon0.09_PT062H.grib2 2026-04-30 14:59 300K
20260430T12Z_MSC_RDPS_GeopotentialHeight_IsbL-0030_RLatLon0.09_PT062H.grib2 2026-04-30 14:59 302K
20260430T12Z_MSC_RDPS_GeopotentialHeight_IsbL-0050_RLatLon0.09_PT062H.grib2 2026-04-30 14:59 337K
20260430T12Z_MSC_RDPS_GeopotentialHeight_IsbL-0100_RLatLon0.09_PT062H.grib2 2026-04-30 14:59 283K
20260430T12Z_MSC_RDPS_GeopotentialHeight_IsbL-0150_RLatLon0.09_PT062H.grib2 2026-04-30 14:59 228K
20260430T12Z_MSC_RDPS_GeopotentialHeight_IsbL-0175_RLatLon0.09_PT062H.grib2 2026-04-30 14:59 261K
20260430T12Z_MSC_RDPS_GeopotentialHeight_IsbL-0200_RLatLon0.09_PT062H.grib2 2026-04-30 14:59 263K
20260430T12Z_MSC_RDPS_GeopotentialHeight_IsbL-0225_RLatLon0.09_PT062H.grib2 2026-04-30 14:59 264K
20260430T12Z_MSC_RDPS_GeopotentialHeight_IsbL-0250_RLatLon0.09_PT062H.grib2 2026-04-30 14:59 264K
20260430T12Z_MSC_RDPS_GeopotentialHeight_IsbL-0275_RLatLon0.09_PT062H.grib2 2026-04-30 14:59 263K
20260430T12Z_MSC_RDPS_GeopotentialHeight_IsbL-0300_RLatLon0.09_PT062H.grib2 2026-04-30 14:59 262K
20260430T12Z_MSC_RDPS_GeopotentialHeight_IsbL-0350_RLatLon0.09_PT062H.grib2 2026-04-30 14:59 229K
20260430T12Z_MSC_RDPS_GeopotentialHeight_IsbL-0400_RLatLon0.09_PT062H.grib2 2026-04-30 14:59 227K
20260430T12Z_MSC_RDPS_GeopotentialHeight_IsbL-0450_RLatLon0.09_PT062H.grib2 2026-04-30 14:59 296K
20260430T12Z_MSC_RDPS_GeopotentialHeight_IsbL-0500_RLatLon0.09_PT062H.grib2 2026-04-30 14:59 291K
20260430T12Z_MSC_RDPS_GeopotentialHeight_IsbL-0550_RLatLon0.09_PT062H.grib2 2026-04-30 14:59 288K
20260430T12Z_MSC_RDPS_GeopotentialHeight_IsbL-0600_RLatLon0.09_PT062H.grib2 2026-04-30 14:59 284K
20260430T12Z_MSC_RDPS_GeopotentialHeight_IsbL-0650_RLatLon0.09_PT062H.grib2 2026-04-30 14:59 255K
20260430T12Z_MSC_RDPS_GeopotentialHeight_IsbL-0700_RLatLon0.09_PT062H.grib2 2026-04-30 14:59 254K
20260430T12Z_MSC_RDPS_GeopotentialHeight_IsbL-0750_RLatLon0.09_PT062H.grib2 2026-04-30 14:59 256K
20260430T12Z_MSC_RDPS_GeopotentialHeight_IsbL-0800_RLatLon0.09_PT062H.grib2 2026-04-30 14:59 343K
20260430T12Z_MSC_RDPS_GeopotentialHeight_IsbL-0850_RLatLon0.09_PT062H.grib2 2026-04-30 14:59 351K
20260430T12Z_MSC_RDPS_GeopotentialHeight_IsbL-0875_RLatLon0.09_PT062H.grib2 2026-04-30 14:59 354K
20260430T12Z_MSC_RDPS_GeopotentialHeight_IsbL-0900_RLatLon0.09_PT062H.grib2 2026-04-30 14:59 357K
20260430T12Z_MSC_RDPS_GeopotentialHeight_IsbL-0925_RLatLon0.09_PT062H.grib2 2026-04-30 14:59 357K
20260430T12Z_MSC_RDPS_GeopotentialHeight_IsbL-0950_RLatLon0.09_PT062H.grib2 2026-04-30 14:59 362K
20260430T12Z_MSC_RDPS_GeopotentialHeight_IsbL-0970_RLatLon0.09_PT062H.grib2 2026-04-30 14:59 368K
20260430T12Z_MSC_RDPS_GeopotentialHeight_IsbL-0985_RLatLon0.09_PT062H.grib2 2026-04-30 14:59 375K
20260430T12Z_MSC_RDPS_GeopotentialHeight_IsbL-1000_RLatLon0.09_PT062H.grib2 2026-04-30 14:59 386K
20260430T12Z_MSC_RDPS_GeopotentialHeight_IsbL-1015_RLatLon0.09_PT062H.grib2 2026-04-30 14:59 399K
20260430T12Z_MSC_RDPS_Humidex_Sfc_RLatLon0.09_PT062H.grib2 2026-04-30 14:59 2.4M
20260430T12Z_MSC_RDPS_IcePellets-Accum1h_Sfc_RLatLon0.09_PT062H.grib2 2026-04-30 14:59 2.2K
20260430T12Z_MSC_RDPS_IcePellets-Accum_Sfc_RLatLon0.09_PT062H.grib2 2026-04-30 14:59 24K
20260430T12Z_MSC_RDPS_KIndex_Sfc_RLatLon0.09_PT062H.grib2 2026-04-30 14:59 2.5M
20260430T12Z_MSC_RDPS_LatentHeatNetFlux_Sfc_RLatLon0.09_PT062H.grib2 2026-04-30 14:59 322K
20260430T12Z_MSC_RDPS_LiftedIndex-MU-VT_IsbL-0500_RLatLon0.09_PT062H.grib2 2026-04-30 14:59 2.4M
20260430T12Z_MSC_RDPS_NetLongwaveRadiationFlux-Accum_Sfc_RLatLon0.09_PT062H.grib2 2026-04-30 14:59 590K
20260430T12Z_MSC_RDPS_NetShortwaveRadiationFlux-Accum_Sfc_RLatLon0.09_PT062H.grib2 2026-04-30 14:59 613K
20260430T12Z_MSC_RDPS_PlanetaryBoundaryLayerHeight_Sfc_RLatLon0.09_PT062H.grib2 2026-04-30 14:59 1.1M
20260430T12Z_MSC_RDPS_Precip-Accum1h_Sfc_RLatLon0.09_PT062H.grib2 2026-04-30 14:59 1.2M
20260430T12Z_MSC_RDPS_Precip-Accum_Sfc_RLatLon0.09_PT062H.grib2 2026-04-30 14:59 2.1M
20260430T12Z_MSC_RDPS_PrecipRate_Sfc_RLatLon0.09_PT062H.grib2 2026-04-30 14:59 162K
20260430T12Z_MSC_RDPS_PrecipType-Instant_Sfc_RLatLon0.09_PT062H.grib2 2026-04-30 14:59 579K
20260430T12Z_MSC_RDPS_Pressure-Trend3h_Sfc_RLatLon0.09_PT062H.grib2 2026-04-30 14:59 1.2M
20260430T12Z_MSC_RDPS_Pressure_MSL_RLatLon0.09_PT062H.grib2 2026-04-30 14:59 321K
20260430T12Z_MSC_RDPS_Pressure_PVU-1.5_RLatLon0.09_PT062H.grib2 2026-04-30 14:59 2.5M
20260430T12Z_MSC_RDPS_Pressure_PVU-1_RLatLon0.09_PT062H.grib2 2026-04-30 14:59 2.4M
20260430T12Z_MSC_RDPS_Pressure_PVU-2_RLatLon0.09_PT062H.grib2 2026-04-30 14:59 2.4M
20260430T12Z_MSC_RDPS_Pressure_Sfc_RLatLon0.09_PT062H.grib2 2026-04-30 14:59 498K
20260430T12Z_MSC_RDPS_RadiativeTemp_Sfc_RLatLon0.09_PT062H.grib2 2026-04-30 14:59 306K
20260430T12Z_MSC_RDPS_Rain-Accum1h_Sfc_RLatLon0.09_PT062H.grib2 2026-04-30 14:59 605K
20260430T12Z_MSC_RDPS_Rain-Accum_Sfc_RLatLon0.09_PT062H.grib2 2026-04-30 14:59 1.7M
20260430T12Z_MSC_RDPS_RelativeHumidity_AGL-2m_RLatLon0.09_PT062H.grib2 2026-04-30 14:59 1.0M
20260430T12Z_MSC_RDPS_RelativeHumidity_IsbL-0010_RLatLon0.09_PT062H.grib2 2026-04-30 14:59 616K
20260430T12Z_MSC_RDPS_RelativeHumidity_IsbL-0020_RLatLon0.09_PT062H.grib2 2026-04-30 14:59 658K
20260430T12Z_MSC_RDPS_RelativeHumidity_IsbL-0030_RLatLon0.09_PT062H.grib2 2026-04-30 14:59 602K
20260430T12Z_MSC_RDPS_RelativeHumidity_IsbL-0050_RLatLon0.09_PT062H.grib2 2026-04-30 14:59 311K
20260430T12Z_MSC_RDPS_RelativeHumidity_IsbL-0100_RLatLon0.09_PT062H.grib2 2026-04-30 14:59 280K
20260430T12Z_MSC_RDPS_RelativeHumidity_IsbL-0150_RLatLon0.09_PT062H.grib2 2026-04-30 14:59 412K
20260430T12Z_MSC_RDPS_RelativeHumidity_IsbL-0175_RLatLon0.09_PT062H.grib2 2026-04-30 14:59 475K
20260430T12Z_MSC_RDPS_RelativeHumidity_IsbL-0200_RLatLon0.09_PT062H.grib2 2026-04-30 14:59 551K
20260430T12Z_MSC_RDPS_RelativeHumidity_IsbL-0225_RLatLon0.09_PT062H.grib2 2026-04-30 14:59 619K
20260430T12Z_MSC_RDPS_RelativeHumidity_IsbL-0250_RLatLon0.09_PT062H.grib2 2026-04-30 14:59 682K
20260430T12Z_MSC_RDPS_RelativeHumidity_IsbL-0275_RLatLon0.09_PT062H.grib2 2026-04-30 14:59 706K
20260430T12Z_MSC_RDPS_RelativeHumidity_IsbL-0300_RLatLon0.09_PT062H.grib2 2026-04-30 14:59 748K
20260430T12Z_MSC_RDPS_RelativeHumidity_IsbL-0350_RLatLon0.09_PT062H.grib2 2026-04-30 14:59 772K
20260430T12Z_MSC_RDPS_RelativeHumidity_IsbL-0400_RLatLon0.09_PT062H.grib2 2026-04-30 14:59 791K
20260430T12Z_MSC_RDPS_RelativeHumidity_IsbL-0450_RLatLon0.09_PT062H.grib2 2026-04-30 14:59 796K
20260430T12Z_MSC_RDPS_RelativeHumidity_IsbL-0500_RLatLon0.09_PT062H.grib2 2026-04-30 14:59 799K
20260430T12Z_MSC_RDPS_RelativeHumidity_IsbL-0550_RLatLon0.09_PT062H.grib2 2026-04-30 14:59 821K
20260430T12Z_MSC_RDPS_RelativeHumidity_IsbL-0600_RLatLon0.09_PT062H.grib2 2026-04-30 14:59 845K
20260430T12Z_MSC_RDPS_RelativeHumidity_IsbL-0650_RLatLon0.09_PT062H.grib2 2026-04-30 14:59 860K
20260430T12Z_MSC_RDPS_RelativeHumidity_IsbL-0700_RLatLon0.09_PT062H.grib2 2026-04-30 14:59 889K
20260430T12Z_MSC_RDPS_RelativeHumidity_IsbL-0750_RLatLon0.09_PT062H.grib2 2026-04-30 14:59 925K
20260430T12Z_MSC_RDPS_RelativeHumidity_IsbL-0800_RLatLon0.09_PT062H.grib2 2026-04-30 14:59 1.0M
20260430T12Z_MSC_RDPS_RelativeHumidity_IsbL-0850_RLatLon0.09_PT062H.grib2 2026-04-30 14:59 1.0M
20260430T12Z_MSC_RDPS_RelativeHumidity_IsbL-0875_RLatLon0.09_PT062H.grib2 2026-04-30 14:59 1.1M
20260430T12Z_MSC_RDPS_RelativeHumidity_IsbL-0900_RLatLon0.09_PT062H.grib2 2026-04-30 14:59 1.1M
20260430T12Z_MSC_RDPS_RelativeHumidity_IsbL-0925_RLatLon0.09_PT062H.grib2 2026-04-30 14:59 1.1M
20260430T12Z_MSC_RDPS_RelativeHumidity_IsbL-0950_RLatLon0.09_PT062H.grib2 2026-04-30 14:59 1.1M
20260430T12Z_MSC_RDPS_RelativeHumidity_IsbL-0970_RLatLon0.09_PT062H.grib2 2026-04-30 14:59 1.0M
20260430T12Z_MSC_RDPS_RelativeHumidity_IsbL-0985_RLatLon0.09_PT062H.grib2 2026-04-30 14:59 1.0M
20260430T12Z_MSC_RDPS_RelativeHumidity_IsbL-1000_RLatLon0.09_PT062H.grib2 2026-04-30 14:59 1.0M
20260430T12Z_MSC_RDPS_RelativeHumidity_IsbL-1015_RLatLon0.09_PT062H.grib2 2026-04-30 14:59 1.0M
20260430T12Z_MSC_RDPS_Runoff-Accum_Sfc_RLatLon0.09_PT062H.grib2 2026-04-30 14:59 65K
20260430T12Z_MSC_RDPS_SWEATIndex_Sfc_RLatLon0.09_PT062H.grib2 2026-04-30 14:59 2.4M
20260430T12Z_MSC_RDPS_SeeingIndex_EAtm_RLatLon0.09_PT062H.grib2 2026-04-30 14:59 1.0M
20260430T12Z_MSC_RDPS_SensibleHeatNetFlux_Sfc_RLatLon0.09_PT062H.grib2 2026-04-30 14:59 290K
20260430T12Z_MSC_RDPS_ShowalterIndex_IsbL-0500_RLatLon0.09_PT062H.grib2 2026-04-30 14:59 2.6M
20260430T12Z_MSC_RDPS_SkyTransparencyIndex_EAtm_RLatLon0.09_PT062H.grib2 2026-04-30 14:59 716K
20260430T12Z_MSC_RDPS_Snow-Accum1h_Sfc_RLatLon0.09_PT062H.grib2 2026-04-30 14:59 450K
20260430T12Z_MSC_RDPS_Snow-Accum_Sfc_RLatLon0.09_PT062H.grib2 2026-04-30 14:59 752K
20260430T12Z_MSC_RDPS_SnowDensity_Sfc_RLatLon0.09_PT062H.grib2 2026-04-30 14:59 175K
20260430T12Z_MSC_RDPS_SnowDepth_Sfc_RLatLon0.09_PT062H.grib2 2026-04-30 14:59 662K
20260430T12Z_MSC_RDPS_SoilTemp_DBS-0to10cm_RLatLon0.09_PT062H.grib2 2026-04-30 14:59 246K
20260430T12Z_MSC_RDPS_SoilTemp_Sfc_RLatLon0.09_PT062H.grib2 2026-04-30 14:59 273K
20260430T12Z_MSC_RDPS_SoilVolumetricIceContent_Sfc_RLatLon0.09_PT062H.grib2 2026-04-30 14:59 159K
20260430T12Z_MSC_RDPS_SoilVolumetricWaterContent_DBS-0to10cm_RLatLon0.09_PT062H.grib2 2026-04-30 14:59 273K
20260430T12Z_MSC_RDPS_SoilVolumetricWaterContent_DBS-0to1cm_RLatLon0.09_PT062H.grib2 2026-04-30 14:59 344K
20260430T12Z_MSC_RDPS_SpecificHumidity_AGL-120m_RLatLon0.09_PT062H.grib2 2026-04-30 14:59 484K
20260430T12Z_MSC_RDPS_SpecificHumidity_AGL-2m_RLatLon0.09_PT062H.grib2 2026-04-30 14:59 652K
20260430T12Z_MSC_RDPS_SpecificHumidity_AGL-40m_RLatLon0.09_PT062H.grib2 2026-04-30 14:59 491K
20260430T12Z_MSC_RDPS_SpecificHumidity_AGL-80m_RLatLon0.09_PT062H.grib2 2026-04-30 14:59 485K
20260430T12Z_MSC_RDPS_SpecificHumidity_IsbL-0001_RLatLon0.09_PT062H.grib2 2026-04-30 14:59 362K
20260430T12Z_MSC_RDPS_SpecificHumidity_IsbL-0005_RLatLon0.09_PT062H.grib2 2026-04-30 14:59 357K
20260430T12Z_MSC_RDPS_SpecificHumidity_IsbL-0010_RLatLon0.09_PT062H.grib2 2026-04-30 14:59 390K
20260430T12Z_MSC_RDPS_SpecificHumidity_IsbL-0020_RLatLon0.09_PT062H.grib2 2026-04-30 14:59 374K
20260430T12Z_MSC_RDPS_SpecificHumidity_IsbL-0030_RLatLon0.09_PT062H.grib2 2026-04-30 14:59 472K
20260430T12Z_MSC_RDPS_SpecificHumidity_IsbL-0050_RLatLon0.09_PT062H.grib2 2026-04-30 14:59 475K
20260430T12Z_MSC_RDPS_SpecificHumidity_IsbL-0100_RLatLon0.09_PT062H.grib2 2026-04-30 14:59 447K
20260430T12Z_MSC_RDPS_SpecificHumidity_IsbL-0150_RLatLon0.09_PT062H.grib2 2026-04-30 14:59 456K
20260430T12Z_MSC_RDPS_SpecificHumidity_IsbL-0175_RLatLon0.09_PT062H.grib2 2026-04-30 14:59 436K
20260430T12Z_MSC_RDPS_SpecificHumidity_IsbL-0200_RLatLon0.09_PT062H.grib2 2026-04-30 14:59 466K
20260430T12Z_MSC_RDPS_SpecificHumidity_IsbL-0225_RLatLon0.09_PT062H.grib2 2026-04-30 14:59 454K
20260430T12Z_MSC_RDPS_SpecificHumidity_IsbL-0250_RLatLon0.09_PT062H.grib2 2026-04-30 14:59 558K
20260430T12Z_MSC_RDPS_SpecificHumidity_IsbL-0275_RLatLon0.09_PT062H.grib2 2026-04-30 14:59 473K
20260430T12Z_MSC_RDPS_SpecificHumidity_IsbL-0300_RLatLon0.09_PT062H.grib2 2026-04-30 14:59 447K
20260430T12Z_MSC_RDPS_SpecificHumidity_IsbL-0350_RLatLon0.09_PT062H.grib2 2026-04-30 14:59 567K
20260430T12Z_MSC_RDPS_SpecificHumidity_IsbL-0400_RLatLon0.09_PT062H.grib2 2026-04-30 14:59 525K
20260430T12Z_MSC_RDPS_SpecificHumidity_IsbL-0450_RLatLon0.09_PT062H.grib2 2026-04-30 14:59 576K
20260430T12Z_MSC_RDPS_SpecificHumidity_IsbL-0500_RLatLon0.09_PT062H.grib2 2026-04-30 14:59 508K
20260430T12Z_MSC_RDPS_SpecificHumidity_IsbL-0550_RLatLon0.09_PT062H.grib2 2026-04-30 14:59 584K
20260430T12Z_MSC_RDPS_SpecificHumidity_IsbL-0600_RLatLon0.09_PT062H.grib2 2026-04-30 14:59 639K
20260430T12Z_MSC_RDPS_SpecificHumidity_IsbL-0650_RLatLon0.09_PT062H.grib2 2026-04-30 14:59 558K
20260430T12Z_MSC_RDPS_SpecificHumidity_IsbL-0700_RLatLon0.09_PT062H.grib2 2026-04-30 14:59 599K
20260430T12Z_MSC_RDPS_SpecificHumidity_IsbL-0750_RLatLon0.09_PT062H.grib2 2026-04-30 14:59 652K
20260430T12Z_MSC_RDPS_SpecificHumidity_IsbL-0800_RLatLon0.09_PT062H.grib2 2026-04-30 14:59 728K
20260430T12Z_MSC_RDPS_SpecificHumidity_IsbL-0850_RLatLon0.09_PT062H.grib2 2026-04-30 14:59 802K
20260430T12Z_MSC_RDPS_SpecificHumidity_IsbL-0875_RLatLon0.09_PT062H.grib2 2026-04-30 14:59 830K
20260430T12Z_MSC_RDPS_SpecificHumidity_IsbL-0900_RLatLon0.09_PT062H.grib2 2026-04-30 14:59 843K
20260430T12Z_MSC_RDPS_SpecificHumidity_IsbL-0925_RLatLon0.09_PT062H.grib2 2026-04-30 14:59 844K
20260430T12Z_MSC_RDPS_SpecificHumidity_IsbL-0950_RLatLon0.09_PT062H.grib2 2026-04-30 14:59 845K
20260430T12Z_MSC_RDPS_SpecificHumidity_IsbL-0970_RLatLon0.09_PT062H.grib2 2026-04-30 14:59 693K
20260430T12Z_MSC_RDPS_SpecificHumidity_IsbL-0985_RLatLon0.09_PT062H.grib2 2026-04-30 14:59 684K
20260430T12Z_MSC_RDPS_SpecificHumidity_IsbL-1000_RLatLon0.09_PT062H.grib2 2026-04-30 14:59 678K
20260430T12Z_MSC_RDPS_SpecificHumidity_IsbL-1015_RLatLon0.09_PT062H.grib2 2026-04-30 14:59 666K
20260430T12Z_MSC_RDPS_SpecificHumidity_Sfc_RLatLon0.09_PT062H.grib2 2026-04-30 14:59 321K
20260430T12Z_MSC_RDPS_StormRelativeHelicity_EtaL-10000_RLatLon0.09_PT062H.grib2 2026-04-30 14:59 1.1M
20260430T12Z_MSC_RDPS_StormSeverityIndex_EtaL-10000_RLatLon0.09_PT062H.grib2 2026-04-30 14:59 1.2M
20260430T12Z_MSC_RDPS_Thickness_IsbL-0850to0700_RLatLon0.09_PT062H.grib2 2026-04-30 14:59 174K
20260430T12Z_MSC_RDPS_Thickness_IsbL-1000to0500_RLatLon0.09_PT062H.grib2 2026-04-30 14:59 194K
20260430T12Z_MSC_RDPS_Thickness_IsbL-1000to0850_RLatLon0.09_PT062H.grib2 2026-04-30 14:59 257K
20260430T12Z_MSC_RDPS_TotalCloudCover_Sfc_RLatLon0.09_PT062H.grib2 2026-04-30 14:59 651K
20260430T12Z_MSC_RDPS_TotalTotalsIndex_Sfc_RLatLon0.09_PT062H.grib2 2026-04-30 14:59 2.4M
20260430T12Z_MSC_RDPS_UVIndex-ClearSky_Sfc_RLatLon0.09_PT062H.grib2 2026-04-30 14:59 119K
20260430T12Z_MSC_RDPS_UVIndex_Sfc_RLatLon0.09_PT062H.grib2 2026-04-30 14:59 251K
20260430T12Z_MSC_RDPS_UpwardLongwaveRadiationFlux_NTAtm_RLatLon0.09_PT062H.grib2 2026-04-30 14:59 488K
20260430T12Z_MSC_RDPS_UpwardShortwaveRadiationFlux_NTAtm_RLatLon0.09_PT062H.grib2 2026-04-30 14:59 237K
20260430T12Z_MSC_RDPS_VerticalVelocity_IsbL-0250_RLatLon0.09_PT062H.grib2 2026-04-30 14:59 429K
20260430T12Z_MSC_RDPS_VerticalVelocity_IsbL-0500_RLatLon0.09_PT062H.grib2 2026-04-30 14:59 536K
20260430T12Z_MSC_RDPS_VerticalVelocity_IsbL-0700_RLatLon0.09_PT062H.grib2 2026-04-30 14:59 591K
20260430T12Z_MSC_RDPS_VerticalVelocity_IsbL-0850_RLatLon0.09_PT062H.grib2 2026-04-30 14:59 687K
20260430T12Z_MSC_RDPS_VerticalWindShear_EtaL-6500_RLatLon0.09_PT062H.grib2 2026-04-30 14:59 1.2M
20260430T12Z_MSC_RDPS_WindChill_Sfc_RLatLon0.09_PT062H.grib2 2026-04-30 14:59 1.1M
20260430T12Z_MSC_RDPS_WindDir_AGL-10m_RLatLon0.09_PT062H.grib2 2026-04-30 14:59 942K
20260430T12Z_MSC_RDPS_WindDir_AGL-120m_RLatLon0.09_PT062H.grib2 2026-04-30 14:59 587K
20260430T12Z_MSC_RDPS_WindDir_AGL-40m_RLatLon0.09_PT062H.grib2 2026-04-30 14:59 615K
20260430T12Z_MSC_RDPS_WindDir_AGL-80m_RLatLon0.09_PT062H.grib2 2026-04-30 14:59 598K
20260430T12Z_MSC_RDPS_WindDir_IsbL-0001_RLatLon0.09_PT062H.grib2 2026-04-30 14:59 306K
20260430T12Z_MSC_RDPS_WindDir_IsbL-0005_RLatLon0.09_PT062H.grib2 2026-04-30 14:59 374K
20260430T12Z_MSC_RDPS_WindDir_IsbL-0010_RLatLon0.09_PT062H.grib2 2026-04-30 14:59 390K
20260430T12Z_MSC_RDPS_WindDir_IsbL-0020_RLatLon0.09_PT062H.grib2 2026-04-30 14:59 432K
20260430T12Z_MSC_RDPS_WindDir_IsbL-0030_RLatLon0.09_PT062H.grib2 2026-04-30 14:59 419K
20260430T12Z_MSC_RDPS_WindDir_IsbL-0050_RLatLon0.09_PT062H.grib2 2026-04-30 14:59 415K
20260430T12Z_MSC_RDPS_WindDir_IsbL-0100_RLatLon0.09_PT062H.grib2 2026-04-30 14:59 411K
20260430T12Z_MSC_RDPS_WindDir_IsbL-0150_RLatLon0.09_PT062H.grib2 2026-04-30 14:59 407K
20260430T12Z_MSC_RDPS_WindDir_IsbL-0175_RLatLon0.09_PT062H.grib2 2026-04-30 14:59 428K
20260430T12Z_MSC_RDPS_WindDir_IsbL-0200_RLatLon0.09_PT062H.grib2 2026-04-30 14:59 446K
20260430T12Z_MSC_RDPS_WindDir_IsbL-0225_RLatLon0.09_PT062H.grib2 2026-04-30 14:59 450K
20260430T12Z_MSC_RDPS_WindDir_IsbL-0250_RLatLon0.09_PT062H.grib2 2026-04-30 14:59 454K
20260430T12Z_MSC_RDPS_WindDir_IsbL-0275_RLatLon0.09_PT062H.grib2 2026-04-30 14:59 475K
20260430T12Z_MSC_RDPS_WindDir_IsbL-0300_RLatLon0.09_PT062H.grib2 2026-04-30 14:59 478K
20260430T12Z_MSC_RDPS_WindDir_IsbL-0350_RLatLon0.09_PT062H.grib2 2026-04-30 14:59 502K
20260430T12Z_MSC_RDPS_WindDir_IsbL-0400_RLatLon0.09_PT062H.grib2 2026-04-30 14:59 518K
20260430T12Z_MSC_RDPS_WindDir_IsbL-0450_RLatLon0.09_PT062H.grib2 2026-04-30 14:59 528K
20260430T12Z_MSC_RDPS_WindDir_IsbL-0500_RLatLon0.09_PT062H.grib2 2026-04-30 14:59 540K
20260430T12Z_MSC_RDPS_WindDir_IsbL-0550_RLatLon0.09_PT062H.grib2 2026-04-30 14:59 553K
20260430T12Z_MSC_RDPS_WindDir_IsbL-0600_RLatLon0.09_PT062H.grib2 2026-04-30 14:59 576K
20260430T12Z_MSC_RDPS_WindDir_IsbL-0650_RLatLon0.09_PT062H.grib2 2026-04-30 14:59 612K
20260430T12Z_MSC_RDPS_WindDir_IsbL-0700_RLatLon0.09_PT062H.grib2 2026-04-30 14:59 654K
20260430T12Z_MSC_RDPS_WindDir_IsbL-0750_RLatLon0.09_PT062H.grib2 2026-04-30 14:59 697K
20260430T12Z_MSC_RDPS_WindDir_IsbL-0800_RLatLon0.09_PT062H.grib2 2026-04-30 14:59 759K
20260430T12Z_MSC_RDPS_WindDir_IsbL-0850_RLatLon0.09_PT062H.grib2 2026-04-30 14:59 840K
20260430T12Z_MSC_RDPS_WindDir_IsbL-0875_RLatLon0.09_PT062H.grib2 2026-04-30 14:59 872K
20260430T12Z_MSC_RDPS_WindDir_IsbL-0900_RLatLon0.09_PT062H.grib2 2026-04-30 14:59 888K
20260430T12Z_MSC_RDPS_WindDir_IsbL-0925_RLatLon0.09_PT062H.grib2 2026-04-30 14:59 896K
20260430T12Z_MSC_RDPS_WindDir_IsbL-0950_RLatLon0.09_PT062H.grib2 2026-04-30 14:59 897K
20260430T12Z_MSC_RDPS_WindDir_IsbL-0970_RLatLon0.09_PT062H.grib2 2026-04-30 14:59 905K
20260430T12Z_MSC_RDPS_WindDir_IsbL-0985_RLatLon0.09_PT062H.grib2 2026-04-30 14:59 911K
20260430T12Z_MSC_RDPS_WindDir_IsbL-1000_RLatLon0.09_PT062H.grib2 2026-04-30 14:59 920K
20260430T12Z_MSC_RDPS_WindDir_IsbL-1015_RLatLon0.09_PT062H.grib2 2026-04-30 14:59 934K
20260430T12Z_MSC_RDPS_WindGust-Max_AGL-10m_RLatLon0.09_PT062H.grib2 2026-04-30 14:59 1.0M
20260430T12Z_MSC_RDPS_WindGust-Min_AGL-10m_RLatLon0.09_PT062H.grib2 2026-04-30 14:59 967K
20260430T12Z_MSC_RDPS_WindGust_AGL-10m_RLatLon0.09_PT062H.grib2 2026-04-30 14:59 1.0M
20260430T12Z_MSC_RDPS_WindSpeed_AGL-10m_RLatLon0.09_PT062H.grib2 2026-04-30 14:59 828K
20260430T12Z_MSC_RDPS_WindSpeed_AGL-120m_RLatLon0.09_PT062H.grib2 2026-04-30 14:59 531K
20260430T12Z_MSC_RDPS_WindSpeed_AGL-40m_RLatLon0.09_PT062H.grib2 2026-04-30 14:59 533K
20260430T12Z_MSC_RDPS_WindSpeed_AGL-80m_RLatLon0.09_PT062H.grib2 2026-04-30 14:59 531K
20260430T12Z_MSC_RDPS_WindSpeed_IsbL-0001_RLatLon0.09_PT062H.grib2 2026-04-30 14:59 249K
20260430T12Z_MSC_RDPS_WindSpeed_IsbL-0005_RLatLon0.09_PT062H.grib2 2026-04-30 14:59 381K
20260430T12Z_MSC_RDPS_WindSpeed_IsbL-0010_RLatLon0.09_PT062H.grib2 2026-04-30 14:59 397K
20260430T12Z_MSC_RDPS_WindSpeed_IsbL-0020_RLatLon0.09_PT062H.grib2 2026-04-30 14:59 417K
20260430T12Z_MSC_RDPS_WindSpeed_IsbL-0030_RLatLon0.09_PT062H.grib2 2026-04-30 14:59 318K
20260430T12Z_MSC_RDPS_WindSpeed_IsbL-0050_RLatLon0.09_PT062H.grib2 2026-04-30 14:59 350K
20260430T12Z_MSC_RDPS_WindSpeed_IsbL-0100_RLatLon0.09_PT062H.grib2 2026-04-30 14:59 476K
20260430T12Z_MSC_RDPS_WindSpeed_IsbL-0150_RLatLon0.09_PT062H.grib2 2026-04-30 14:59 383K
20260430T12Z_MSC_RDPS_WindSpeed_IsbL-0175_RLatLon0.09_PT062H.grib2 2026-04-30 14:59 408K
20260430T12Z_MSC_RDPS_WindSpeed_IsbL-0200_RLatLon0.09_PT062H.grib2 2026-04-30 14:59 446K
20260430T12Z_MSC_RDPS_WindSpeed_IsbL-0225_RLatLon0.09_PT062H.grib2 2026-04-30 14:59 451K
20260430T12Z_MSC_RDPS_WindSpeed_IsbL-0250_RLatLon0.09_PT062H.grib2 2026-04-30 14:59 453K
20260430T12Z_MSC_RDPS_WindSpeed_IsbL-0275_RLatLon0.09_PT062H.grib2 2026-04-30 14:59 470K
20260430T12Z_MSC_RDPS_WindSpeed_IsbL-0300_RLatLon0.09_PT062H.grib2 2026-04-30 14:59 466K
20260430T12Z_MSC_RDPS_WindSpeed_IsbL-0350_RLatLon0.09_PT062H.grib2 2026-04-30 14:59 478K
20260430T12Z_MSC_RDPS_WindSpeed_IsbL-0400_RLatLon0.09_PT062H.grib2 2026-04-30 14:59 483K
20260430T12Z_MSC_RDPS_WindSpeed_IsbL-0450_RLatLon0.09_PT062H.grib2 2026-04-30 14:59 465K
20260430T12Z_MSC_RDPS_WindSpeed_IsbL-0500_RLatLon0.09_PT062H.grib2 2026-04-30 14:59 465K
20260430T12Z_MSC_RDPS_WindSpeed_IsbL-0550_RLatLon0.09_PT062H.grib2 2026-04-30 14:59 584K
20260430T12Z_MSC_RDPS_WindSpeed_IsbL-0600_RLatLon0.09_PT062H.grib2 2026-04-30 14:59 593K
20260430T12Z_MSC_RDPS_WindSpeed_IsbL-0650_RLatLon0.09_PT062H.grib2 2026-04-30 14:59 611K
20260430T12Z_MSC_RDPS_WindSpeed_IsbL-0700_RLatLon0.09_PT062H.grib2 2026-04-30 14:59 676K
20260430T12Z_MSC_RDPS_WindSpeed_IsbL-0750_RLatLon0.09_PT062H.grib2 2026-04-30 14:59 704K
20260430T12Z_MSC_RDPS_WindSpeed_IsbL-0800_RLatLon0.09_PT062H.grib2 2026-04-30 14:59 748K
20260430T12Z_MSC_RDPS_WindSpeed_IsbL-0850_RLatLon0.09_PT062H.grib2 2026-04-30 14:59 762K
20260430T12Z_MSC_RDPS_WindSpeed_IsbL-0875_RLatLon0.09_PT062H.grib2 2026-04-30 14:59 831K
20260430T12Z_MSC_RDPS_WindSpeed_IsbL-0900_RLatLon0.09_PT062H.grib2 2026-04-30 14:59 845K
20260430T12Z_MSC_RDPS_WindSpeed_IsbL-0925_RLatLon0.09_PT062H.grib2 2026-04-30 14:59 858K
20260430T12Z_MSC_RDPS_WindSpeed_IsbL-0950_RLatLon0.09_PT062H.grib2 2026-04-30 14:59 859K
20260430T12Z_MSC_RDPS_WindSpeed_IsbL-0970_RLatLon0.09_PT062H.grib2 2026-04-30 14:59 860K
20260430T12Z_MSC_RDPS_WindSpeed_IsbL-0985_RLatLon0.09_PT062H.grib2 2026-04-30 14:59 849K
20260430T12Z_MSC_RDPS_WindSpeed_IsbL-1000_RLatLon0.09_PT062H.grib2 2026-04-30 14:59 840K
20260430T12Z_MSC_RDPS_WindSpeed_IsbL-1015_RLatLon0.09_PT062H.grib2 2026-04-30 14:59 829K
20260430T12Z_MSC_RDPS_WindU_AGL-10m_RLatLon0.09_PT062H.grib2 2026-04-30 14:59 424K
20260430T12Z_MSC_RDPS_WindU_AGL-120m_RLatLon0.09_PT062H.grib2 2026-04-30 14:59 529K
20260430T12Z_MSC_RDPS_WindU_AGL-40m_RLatLon0.09_PT062H.grib2 2026-04-30 14:59 530K
20260430T12Z_MSC_RDPS_WindU_AGL-80m_RLatLon0.09_PT062H.grib2 2026-04-30 14:59 530K
20260430T12Z_MSC_RDPS_WindU_IsbL-0001_RLatLon0.09_PT062H.grib2 2026-04-30 14:59 240K
20260430T12Z_MSC_RDPS_WindU_IsbL-0005_RLatLon0.09_PT062H.grib2 2026-04-30 14:59 283K
20260430T12Z_MSC_RDPS_WindU_IsbL-0010_RLatLon0.09_PT062H.grib2 2026-04-30 14:59 294K
20260430T12Z_MSC_RDPS_WindU_IsbL-0020_RLatLon0.09_PT062H.grib2 2026-04-30 14:59 312K
20260430T12Z_MSC_RDPS_WindU_IsbL-0030_RLatLon0.09_PT062H.grib2 2026-04-30 14:59 351K
20260430T12Z_MSC_RDPS_WindU_IsbL-0050_RLatLon0.09_PT062H.grib2 2026-04-30 14:59 379K
20260430T12Z_MSC_RDPS_WindU_IsbL-0100_RLatLon0.09_PT062H.grib2 2026-04-30 14:59 431K
20260430T12Z_MSC_RDPS_WindU_IsbL-0150_RLatLon0.09_PT062H.grib2 2026-04-30 14:59 398K
20260430T12Z_MSC_RDPS_WindU_IsbL-0175_RLatLon0.09_PT062H.grib2 2026-04-30 14:59 421K
20260430T12Z_MSC_RDPS_WindU_IsbL-0200_RLatLon0.09_PT062H.grib2 2026-04-30 14:59 340K
20260430T12Z_MSC_RDPS_WindU_IsbL-0225_RLatLon0.09_PT062H.grib2 2026-04-30 14:59 343K
20260430T12Z_MSC_RDPS_WindU_IsbL-0250_RLatLon0.09_PT062H.grib2 2026-04-30 14:59 344K
20260430T12Z_MSC_RDPS_WindU_IsbL-0275_RLatLon0.09_PT062H.grib2 2026-04-30 14:59 358K
20260430T12Z_MSC_RDPS_WindU_IsbL-0300_RLatLon0.09_PT062H.grib2 2026-04-30 14:59 353K
20260430T12Z_MSC_RDPS_WindU_IsbL-0350_RLatLon0.09_PT062H.grib2 2026-04-30 14:59 363K
20260430T12Z_MSC_RDPS_WindU_IsbL-0400_RLatLon0.09_PT062H.grib2 2026-04-30 14:59 472K
20260430T12Z_MSC_RDPS_WindU_IsbL-0450_RLatLon0.09_PT062H.grib2 2026-04-30 14:59 470K
20260430T12Z_MSC_RDPS_WindU_IsbL-0500_RLatLon0.09_PT062H.grib2 2026-04-30 14:59 471K
20260430T12Z_MSC_RDPS_WindU_IsbL-0550_RLatLon0.09_PT062H.grib2 2026-04-30 14:59 473K
20260430T12Z_MSC_RDPS_WindU_IsbL-0600_RLatLon0.09_PT062H.grib2 2026-04-30 14:59 482K
20260430T12Z_MSC_RDPS_WindU_IsbL-0650_RLatLon0.09_PT062H.grib2 2026-04-30 14:59 482K
20260430T12Z_MSC_RDPS_WindU_IsbL-0700_RLatLon0.09_PT062H.grib2 2026-04-30 14:59 502K
20260430T12Z_MSC_RDPS_WindU_IsbL-0750_RLatLon0.09_PT062H.grib2 2026-04-30 14:59 527K
20260430T12Z_MSC_RDPS_WindU_IsbL-0800_RLatLon0.09_PT062H.grib2 2026-04-30 14:59 565K
20260430T12Z_MSC_RDPS_WindU_IsbL-0850_RLatLon0.09_PT062H.grib2 2026-04-30 14:59 616K
20260430T12Z_MSC_RDPS_WindU_IsbL-0875_RLatLon0.09_PT062H.grib2 2026-04-30 14:59 636K
20260430T12Z_MSC_RDPS_WindU_IsbL-0900_RLatLon0.09_PT062H.grib2 2026-04-30 14:59 647K
20260430T12Z_MSC_RDPS_WindU_IsbL-0925_RLatLon0.09_PT062H.grib2 2026-04-30 14:59 655K
20260430T12Z_MSC_RDPS_WindU_IsbL-0950_RLatLon0.09_PT062H.grib2 2026-04-30 14:59 652K
20260430T12Z_MSC_RDPS_WindU_IsbL-0970_RLatLon0.09_PT062H.grib2 2026-04-30 14:59 651K
20260430T12Z_MSC_RDPS_WindU_IsbL-0985_RLatLon0.09_PT062H.grib2 2026-04-30 14:59 645K
20260430T12Z_MSC_RDPS_WindU_IsbL-1000_RLatLon0.09_PT062H.grib2 2026-04-30 14:59 776K
20260430T12Z_MSC_RDPS_WindU_IsbL-1015_RLatLon0.09_PT062H.grib2 2026-04-30 14:59 767K
20260430T12Z_MSC_RDPS_WindV_AGL-10m_RLatLon0.09_PT062H.grib2 2026-04-30 14:59 424K
20260430T12Z_MSC_RDPS_WindV_AGL-120m_RLatLon0.09_PT062H.grib2 2026-04-30 14:59 412K
20260430T12Z_MSC_RDPS_WindV_AGL-40m_RLatLon0.09_PT062H.grib2 2026-04-30 14:59 414K
20260430T12Z_MSC_RDPS_WindV_AGL-80m_RLatLon0.09_PT062H.grib2 2026-04-30 14:59 412K
20260430T12Z_MSC_RDPS_WindV_IsbL-0001_RLatLon0.09_PT062H.grib2 2026-04-30 14:59 245K
20260430T12Z_MSC_RDPS_WindV_IsbL-0005_RLatLon0.09_PT062H.grib2 2026-04-30 14:59 287K
20260430T12Z_MSC_RDPS_WindV_IsbL-0010_RLatLon0.09_PT062H.grib2 2026-04-30 14:59 390K
20260430T12Z_MSC_RDPS_WindV_IsbL-0020_RLatLon0.09_PT062H.grib2 2026-04-30 14:59 315K
20260430T12Z_MSC_RDPS_WindV_IsbL-0030_RLatLon0.09_PT062H.grib2 2026-04-30 14:59 316K
20260430T12Z_MSC_RDPS_WindV_IsbL-0050_RLatLon0.09_PT062H.grib2 2026-04-30 14:59 343K
20260430T12Z_MSC_RDPS_WindV_IsbL-0100_RLatLon0.09_PT062H.grib2 2026-04-30 14:59 430K
20260430T12Z_MSC_RDPS_WindV_IsbL-0150_RLatLon0.09_PT062H.grib2 2026-04-30 14:59 398K
20260430T12Z_MSC_RDPS_WindV_IsbL-0175_RLatLon0.09_PT062H.grib2 2026-04-30 14:59 422K
20260430T12Z_MSC_RDPS_WindV_IsbL-0200_RLatLon0.09_PT062H.grib2 2026-04-30 14:59 339K
20260430T12Z_MSC_RDPS_WindV_IsbL-0225_RLatLon0.09_PT062H.grib2 2026-04-30 14:59 341K
20260430T12Z_MSC_RDPS_WindV_IsbL-0250_RLatLon0.09_PT062H.grib2 2026-04-30 14:59 343K
20260430T12Z_MSC_RDPS_WindV_IsbL-0275_RLatLon0.09_PT062H.grib2 2026-04-30 14:59 357K
20260430T12Z_MSC_RDPS_WindV_IsbL-0300_RLatLon0.09_PT062H.grib2 2026-04-30 14:59 378K
20260430T12Z_MSC_RDPS_WindV_IsbL-0350_RLatLon0.09_PT062H.grib2 2026-04-30 14:59 361K
20260430T12Z_MSC_RDPS_WindV_IsbL-0400_RLatLon0.09_PT062H.grib2 2026-04-30 14:59 365K
20260430T12Z_MSC_RDPS_WindV_IsbL-0450_RLatLon0.09_PT062H.grib2 2026-04-30 14:59 469K
20260430T12Z_MSC_RDPS_WindV_IsbL-0500_RLatLon0.09_PT062H.grib2 2026-04-30 14:59 469K
20260430T12Z_MSC_RDPS_WindV_IsbL-0550_RLatLon0.09_PT062H.grib2 2026-04-30 14:59 470K
20260430T12Z_MSC_RDPS_WindV_IsbL-0600_RLatLon0.09_PT062H.grib2 2026-04-30 14:59 480K
20260430T12Z_MSC_RDPS_WindV_IsbL-0650_RLatLon0.09_PT062H.grib2 2026-04-30 14:59 496K
20260430T12Z_MSC_RDPS_WindV_IsbL-0700_RLatLon0.09_PT062H.grib2 2026-04-30 14:59 515K
20260430T12Z_MSC_RDPS_WindV_IsbL-0750_RLatLon0.09_PT062H.grib2 2026-04-30 14:59 538K
20260430T12Z_MSC_RDPS_WindV_IsbL-0800_RLatLon0.09_PT062H.grib2 2026-04-30 14:59 573K
20260430T12Z_MSC_RDPS_WindV_IsbL-0850_RLatLon0.09_PT062H.grib2 2026-04-30 14:59 613K
20260430T12Z_MSC_RDPS_WindV_IsbL-0875_RLatLon0.09_PT062H.grib2 2026-04-30 14:59 642K
20260430T12Z_MSC_RDPS_WindV_IsbL-0900_RLatLon0.09_PT062H.grib2 2026-04-30 14:59 652K
20260430T12Z_MSC_RDPS_WindV_IsbL-0925_RLatLon0.09_PT062H.grib2 2026-04-30 14:59 659K
20260430T12Z_MSC_RDPS_WindV_IsbL-0950_RLatLon0.09_PT062H.grib2 2026-04-30 14:59 651K
20260430T12Z_MSC_RDPS_WindV_IsbL-0970_RLatLon0.09_PT062H.grib2 2026-04-30 14:59 650K
20260430T12Z_MSC_RDPS_WindV_IsbL-0985_RLatLon0.09_PT062H.grib2 2026-04-30 14:59 643K
20260430T12Z_MSC_RDPS_WindV_IsbL-1000_RLatLon0.09_PT062H.grib2 2026-04-30 14:59 774K
20260430T12Z_MSC_RDPS_WindV_IsbL-1015_RLatLon0.09_PT062H.grib2 2026-04-30 14:59 766K